FW2788 Weather Reports


time (UTC)temp
C
wind
direction
speed
KPH
gust
KPH
rain 1hr
cm
rain 24hr
cm
rain mn
cm
humidity
%
barometer
mb
20260505185052 21 276 3.2 11.3 0.00 0.00 0.00 40
20260505184548 21 345 6.4 11.3 0.00 0.00 0.00 37
20260505184045 21 250 3.2 6.4 0.00 0.00 0.00 40
20260505183542 21 263 6.4 8.0 0.00 0.00 0.00 37
20260505183039 21 315 3.2 4.8 0.00 0.00 0.00 39
20260505182535 20 297 8.0 14.5 0.00 0.00 0.00 38
20260505182032 21 258 6.4 9.7 0.00 0.00 0.00 39
20260505181529 20 339 9.7 16.1 0.00 0.00 0.00 40
20260505181026 21 291 6.4 12.9 0.00 0.00 0.00 41
20260505180521 21 268 3.2 9.7 0.00 0.00 0.00 39
20260505180021 21 71 3.2 6.4 0.00 0.00 0.00 39
20260505175515 21 279 4.8 8.0 0.00 0.00 0.00 39
20260505175012 21 216 3.2 6.4 0.00 0.00 0.00 36
20260505174509 21 262 8.0 8.0 0.00 0.00 0.00 37
20260505174005 21 316 8.0 14.5 0.00 0.00 0.00 40
20260505173502 20 300 8.0 9.7 0.00 0.00 0.00 40
20260505172958 20 180 8.0 12.9 0.00 0.00 0.00 38
20260505172457 20 177 4.8 8.0 0.00 0.00 0.00 40
20260505171956 20 161 0.0 9.7 0.00 0.00 0.00 40
20260505171447 20 154 3.2 8.0 0.00 0.00 0.00 38
20260505170938 21 105 3.2 6.4 0.00 0.00 0.00 40
20260505170435 21 285 1.6 6.4 0.00 0.00 0.00 38
20260505165930 20 185 1.6 4.8 0.00 0.00 0.00 38
20260505165426 19 186 0.0 6.4 0.00 0.00 0.00 40
20260505164922 20 156 6.4 8.0 0.00 0.00 0.00 40
20260505164419 20 107 0.0 6.4 0.00 0.00 0.00 42
20260505163917 19 169 4.8 9.7 0.00 0.00 0.00 43
20260505163416 19 276 4.8 6.4 0.00 0.00 0.00 43
20260505162914 18 253 3.2 6.4 0.00 0.00 0.00 43
20260505162410 18 194 6.4 12.9 0.00 0.00 0.00 41
20260505161907 18 191 9.7 12.9 0.00 0.00 0.00 41
20260505161403 18 167 1.6 14.5 0.00 0.00 0.00 42
20260505160901 18 149 8.0 14.5 0.00 0.00 0.00 41
20260505160359 18 175 4.8 14.5 0.00 0.00 0.00 43
20260505153332 18 126 4.8 11.3 0.00 0.00 0.00 46
20260505152828 18 140 8.0 11.3 0.00 0.00 0.00 47
20260505152325 18 155 4.8 6.4 0.00 0.00 0.00 50
20260505151820 17 251 1.6 3.2 0.00 0.00 0.00 55
20260505151317 16 124 3.2 4.8 0.00 0.00 0.00 58
20260505150814 15 124 3.2 3.2 0.00 0.00 0.00 58
20260505150311 15 112 3.2 6.4 0.00 0.00 0.00 57
20260505140235 11 79 1.6 4.8 0.00 0.00 0.00 70
20260505130159 10 108 3.2 4.8 0.00 0.00 0.00 70
20260505124649 10 166 3.2 6.4 0.00 0.00 0.00 70
20260505124145 10 113 4.8 6.4 0.00 0.00 0.00 71
20260505123641 10 130 6.4 6.4 0.00 0.00 0.00 71
20260505123138 9 150 3.2 6.4 0.00 0.00 0.00 72
20260505122629 8 111 4.8 8.0 0.00 0.00 0.00 73
20260505122126 8 92 4.8 9.7 0.00 0.00 0.00 73
20260505121622 8 176 3.2 8.0 0.00 0.00 0.00 73
20260505121119 9 133 3.2 9.7 0.00 0.00 0.00 72
20260505120615 10 130 6.4 14.5 0.00 0.00 0.00 70
20260505120111 10 121 6.4 6.4 0.00 0.00 0.00 70
20260505115605 10 143 6.4 8.0 0.00 0.00 0.00 70
20260505115103 10 108 8.0 8.0 0.00 0.00 0.00 70
20260505114600 10 119 6.4 6.4 0.00 0.00 0.00 70
20260505114056 9 67 6.4 11.3 0.00 0.00 0.00 70
20260505113553 9 129 3.2 4.8 0.00 0.00 0.00 70
20260505113050 9 97 1.6 3.2 0.00 0.00 0.00 70
20260505112546 10 157 11.3 12.9 0.00 0.00 0.00 68
20260505112044 10 139 6.4 6.4 0.00 0.00 0.00 68
20260505111538 10 133 4.8 6.4 0.00 0.00 0.00 68
20260505111034 10 157 1.6 4.8 0.00 0.00 0.00 67
20260505092037 12 128 0.0 3.2 0.00 0.00 0.00 58
20260505091533 12 128 0.0 3.2 0.00 0.00 0.00 58
20260505091031 13 168 1.6 3.2 0.00 0.00 0.00 58
20260505090529 13 155 4.8 6.4 0.00 0.00 0.00 56
20260505090027 13 140 1.6 4.8 0.00 0.00 0.00 55
20260505085524 13 134 3.2 4.8 0.00 0.00 0.00 54
20260505085022 13 223 3.2 3.2 0.00 0.00 0.00 54
20260505084520 13 180 1.6 6.4 0.00 0.00 0.00 54
20260505084018 13 281 6.4 8.0 0.00 0.00 0.00 54
20260505083515 13 292 4.8 6.4 0.00 0.00 0.00 54
20260505083011 14 280 3.2 9.7 0.00 0.00 0.00 53
20260505082507 15 294 6.4 6.4 0.00 0.00 0.00 52
20260505082004 15 214 1.6 8.0 0.00 0.00 0.00 52
20260505081501 15 318 8.0 11.3 0.00 0.00 0.00 51
20260505080957 15 344 6.4 11.3 0.00 0.00 0.00 51
20260505080454 15 285 6.4 16.1 0.00 0.00 0.00 51
20260505075949 15 273 6.4 12.9 0.00 0.00 0.00 51
20260505075446 15 335 6.4 12.9 0.00 0.00 0.00 52
20260505074943 15 181 1.6 6.4 0.00 0.00 0.00 53
20260505074441 15 266 3.2 3.2 0.00 0.00 0.00 52
20260505073938 15 269 4.8 8.0 0.00 0.00 0.00 51
20260505073436 15 322 4.8 9.7 0.00 0.00 0.00 52
20260505072932 15 297 4.8 6.4 0.00 0.00 0.00 52
20260505072429 15 280 4.8 4.8 0.00 0.00 0.00 52
20260505071925 16 294 3.2 9.7 0.00 0.00 0.00 49
20260505071421 16 321 1.6 12.9 0.00 0.00 0.00 49
20260505070919 16 315 4.8 8.0 0.00 0.00 0.00 49
20260505070415 16 303 3.2 12.9 0.00 0.00 0.00 48
20260505065911 16 328 6.4 6.4 0.00 0.00 0.00 49
20260505065408 16 284 6.4 8.0 0.00 0.00 0.00 48
20260505064905 16 301 4.8 9.7 0.00 0.00 0.00 47
20260505064402 17 299 9.7 9.7 0.00 0.00 0.00 46
20260505063900 17 312 9.7 11.3 0.00 0.00 0.00 45
20260505063356 17 305 8.0 14.5 0.00 0.00 0.00 45
20260505062852 17 321 6.4 14.5 0.00 0.00 0.00 45
20260505062350 17 335 8.0 9.7 0.00 0.00 0.00 46
20260505061847 17 303 8.0 9.7 0.00 0.00 0.00 46
20260505061345 17 312 3.2 14.5 0.00 0.00 0.00 46
20260505060842 17 319 11.3 12.9 0.00 0.00 0.00 45
20260505060339 17 316 6.4 16.1 0.00 0.00 0.00 45
20260505055835 17 287 6.4 12.9 0.00 0.00 0.00 46
20260505055331 17 319 8.0 11.3 0.00 0.00 0.00 46
20260505054828 17 300 3.2 11.3 0.00 0.00 0.00 46
20260505054326 17 322 4.8 9.7 0.00 0.00 0.00 46
20260505053824 17 320 6.4 12.9 0.00 0.00 0.00 47
20260505053320 17 296 6.4 8.0 0.00 0.00 0.00 47
20260505052817 17 307 3.2 8.0 0.00 0.00 0.00 47
20260505052314 17 298 3.2 9.7 0.00 0.00 0.00 47
20260505051811 17 294 6.4 9.7 0.00 0.00 0.00 46
20260505051309 18 325 4.8 11.3 0.00 0.00 0.00 46
20260505050806 18 318 8.0 9.7 0.00 0.00 0.00 44
20260505050305 18 288 8.0 12.9 0.00 0.00 0.00 43
20260505041735 19 300 6.4 8.0 0.00 0.00 0.00 44
20260505041232 19 327 6.4 12.9 0.00 0.00 0.00 43
20260505040729 20 310 4.8 6.4 0.00 0.00 0.00 41
20260505040226 20 317 6.4 11.3 0.00 0.00 0.00 39
20260505035723 21 292 6.4 8.0 0.00 0.00 0.00 39
20260505035219 21 304 3.2 6.4 0.00 0.00 0.00 38
20260505034716 21 286 3.2 4.8 0.00 0.00 0.00 38
20260505034213 21 288 0.0 6.4 0.00 0.00 0.00 39
20260505033709 21 356 3.2 4.8 0.00 0.00 0.00 38
20260505033208 22 336 6.4 9.7 0.00 0.00 0.00 37
20260505032705 22 351 4.8 16.1 0.00 0.00 0.00 37
20260505032201 22 39 6.4 9.7 0.00 0.00 0.00 36
20260505031658 22 293 8.0 9.7 0.00 0.00 0.00 36
20260505031155 22 290 4.8 4.8 0.00 0.00 0.00 37
20260505030651 22 2 8.0 11.3 0.00 0.00 0.00 36
20260505030147 22 345 3.2 8.0 0.00 0.00 0.00 36
20260505025644 22 284 3.2 8.0 0.00 0.00 0.00 36
20260505025142 23 288 6.4 8.0 0.00 0.00 0.00 36
20260505024639 23 303 4.8 11.3 0.00 0.00 0.00 35
20260505024136 23 296 8.0 8.0 0.00 0.00 0.00 35
20260505023634 23 343 3.2 9.7 0.00 0.00 0.00 34
20260505023131 24 314 9.7 14.5 0.00 0.00 0.00 33
20260505022629 24 319 4.8 12.9 0.00 0.00 0.00 33
20260505022125 24 317 8.0 12.9 0.00 0.00 0.00 33
20260505021622 25 298 9.7 9.7 0.00 0.00 0.00 32
20260505021118 25 291 3.2 14.5 0.00 0.00 0.00 32
20260505020614 25 359 1.6 17.7 0.00 0.00 0.00 31
20260505020110 25 303 14.5 19.3 0.00 0.00 0.00 31
20260505015608 25 312 8.0 17.7 0.00 0.00 0.00 30
20260505015104 26 345 3.2 19.3 0.00 0.00 0.00 31
20260505014601 26 308 6.4 20.9 0.00 0.00 0.00 30
20260505014058 26 307 8.0 12.9 0.00 0.00 0.00 30
20260505013555 26 307 12.9 14.5 0.00 0.00 0.00 30
20260505013053 26 303 8.0 24.1 0.00 0.00 0.00 30
20260505012551 26 331 6.4 20.9 0.00 0.00 0.00 29
20260505012048 26 342 6.4 19.3 0.00 0.00 0.00 28
20260505011543 26 312 12.9 20.9 0.00 0.00 0.00 28
20260505011041 26 289 17.7 19.3 0.00 0.00 0.00 28
20260505010536 27 316 14.5 16.1 0.00 0.00 0.00 28
20260505010032 27 1 14.5 19.3 0.00 0.00 0.00 26
20260505005529 27 305 17.7 22.5 0.00 0.00 0.00 26
20260505005027 27 310 19.3 25.7 0.00 0.00 0.00 25
20260505004523 27 337 4.8 19.3 0.00 0.00 0.00 24
20260505004020 27 330 3.2 22.5 0.00 0.00 0.00 24
20260505003517 27 262 8.0 11.3 0.00 0.00 0.00 24
20260505003014 27 320 11.3 20.9 0.00 0.00 0.00 23
20260505002509 27 298 14.5 16.1 0.00 0.00 0.00 25
20260505002008 27 344 6.4 22.5 0.00 0.00 0.00 25
20260505001505 27 329 8.0 17.7 0.00 0.00 0.00 25
20260505001002 27 310 17.7 22.5 0.00 0.00 0.00 25
20260505000459 27 289 20.9 30.6 0.00 0.00 0.00 24
20260504235956 27 335 14.5 27.4 0.00 0.00 0.00 24
20260504235453 27 307 17.7 24.1 0.00 0.00 0.00 25
20260504234950 27 325 9.7 24.1 0.00 0.00 0.00 27
20260504234447 27 308 11.3 24.1 0.00 0.00 0.00 27
20260504233943 27 328 12.9 19.3 0.00 0.00 0.00 26
20260504233439 27 303 9.7 19.3 0.00 0.00 0.00 28
20260504232936 27 288 14.5 24.1 0.00 0.00 0.00 27
20260504232433 27 280 4.8 22.5 0.00 0.00 0.00 30
20260504231931 26 290 9.7 27.4 0.00 0.00 0.00 29
20260504231427 27 307 11.3 17.7 0.00 0.00 0.00 28
20260504230923 27 312 14.5 19.3 0.00 0.00 0.00 29
20260504230420 26 3 3.2 20.9 0.00 0.00 0.00 29
20260504225919 27 314 20.9 29.0 0.00 0.00 0.00 28
20260504225415 27 346 9.7 20.9 0.00 0.00 0.00 29
20260504224913 27 311 6.4 24.1 0.00 0.00 0.00 31
20260504224409 26 290 4.8 19.3 0.00 0.00 0.00 30
20260504223907 27 300 12.9 14.5 0.00 0.00 0.00 30
20260504223402 27 34 3.2 12.9 0.00 0.00 0.00 29
20260504222858 26 337 6.4 12.9 0.00 0.00 0.00 30
20260504222355 27 325 9.7 22.5 0.00 0.00 0.00 28
20260504221854 26 353 12.9 14.5 0.00 0.00 0.00 29
20260504221350 26 317 6.4 16.1 0.00 0.00 0.00 28
20260504220847 26 305 14.5 22.5 0.00 0.00 0.00 27
20260504220344 26 265 11.3 19.3 0.00 0.00 0.00 32
20260504215841 26 269 9.7 25.7 0.00 0.00 0.00 33
20260504215337 26 324 12.9 16.1 0.00 0.00 0.00 31
20260504214833 26 355 8.0 9.7 0.00 0.00 0.00 34
20260504214331 26 317 6.4 12.9 0.00 0.00 0.00 34
20260504213827 26 252 4.8 12.9 0.00 0.00 0.00 33
20260504213323 26 327 6.4 17.7 0.00 0.00 0.00 33
20260504212821 26 15 6.4 12.9 0.00 0.00 0.00 33
20260504212317 25 277 12.9 16.1 0.00 0.00 0.00 34
20260504211815 25 259 6.4 14.5 0.00 0.00 0.00 36
20260504211310 25 293 12.9 19.3 0.00 0.00 0.00 34
20260504210808 25 316 9.7 12.9 0.00 0.00 0.00 35
20260504210305 25 299 3.2 17.7 0.00 0.00 0.00 35
20260504205802 26 317 11.3 19.3 0.00 0.00 0.00 34
20260504205300 25 334 11.3 14.5 0.00 0.00 0.00 34
20260504204758 25 297 11.3 17.7 0.00 0.00 0.00 33
20260504204256 25 340 3.2 11.3 0.00 0.00 0.00 38
20260504203755 24 2 6.4 22.5 0.00 0.00 0.00 35
20260504203252 25 306 8.0 17.7 0.00 0.00 0.00 37
20260504202747 24 308 12.9 17.7 0.00 0.00 0.00 35
20260504202245 24 253 11.3 17.7 0.00 0.00 0.00 34
20260504201742 24 283 12.9 16.1 0.00 0.00 0.00 35
20260504201238 24 284 14.5 16.1 0.00 0.00 0.00 36
20260504200736 23 300 14.5 17.7 0.00 0.00 0.00 34
20260504200232 24 276 9.7 16.1 0.00 0.00 0.00 33
20260504195728 23 289 9.7 17.7 0.00 0.00 0.00 39
20260504195224 23 280 6.4 20.9 0.00 0.00 0.00 35
20260504194722 23 275 16.1 19.3 0.00 0.00 0.00 37
20260504194218 23 320 9.7 16.1 0.00 0.00 0.00 34
20260504193714 23 287 17.7 20.9 0.00 0.00 0.00 36
20260504193212 23 290 9.7 14.5 0.00 0.00 0.00 37
20260504192710 23 279 12.9 17.7 0.00 0.00 0.00 36
20260504192208 23 290 16.1 20.9 0.00 0.00 0.00 36
20260504191707 23 263 12.9 16.1 0.00 0.00 0.00 39
20260504191203 23 20 3.2 12.9 0.00 0.00 0.00 39
20260504190658 22 281 11.3 20.9 0.00 0.00 0.00 39
20260504190155 22 312 9.7 19.3 0.00 0.00 0.00 40
20260504185652 22 312 8.0 14.5 0.00 0.00 0.00 39